Time,TemperatureF,DewpointF,PressureIn,WindDirection,WindDirectionDegrees,WindSpeedMPH,WindSpeedGustMPH,Humidity,HourlyPrecipIn,Conditions,Clouds,dailyrainin,SoftwareType,DateUTC
2013-09-16 00:01:00,50.4,47.6,29.64,ENE,68,0.0,0.0,90,0.00,,,0.00,WUHU216HW,2013-09-16 05:01:00,
2013-09-16 00:06:00,50.2,47.7,29.65,ENE,68,0.0,0.0,91,0.00,,,0.00,WUHU216HW,2013-09-16 05:06:00,
2013-09-16 00:11:00,50.6,48.1,29.65,ENE,68,0.0,0.0,91,0.00,,,0.00,WUHU216HW,2013-09-16 05:11:00,
2013-09-16 00:16:00,50.6,48.1,29.65,ENE,68,0.0,0.0,91,0.00,,,0.00,WUHU216HW,2013-09-16 05:16:00,
2013-09-16 00:21:00,50.4,47.9,29.65,ENE,68,0.0,0.0,91,0.00,,,0.00,WUHU216HW,2013-09-16 05:21:00,
2013-09-16 00:26:00,50.4,47.9,29.65,ENE,68,0.0,0.0,91,0.00,,,0.00,WUHU216HW,2013-09-16 05:26:00,
2013-09-16 00:31:00,50.2,47.7,29.64,ENE,68,0.0,0.0,91,0.00,,,0.00,WUHU216HW,2013-09-16 05:31:00,
2013-09-16 00:36:00,50.0,47.5,29.65,ENE,68,0.0,0.0,91,0.00,,,0.00,WUHU216HW,2013-09-16 05:36:00,
2013-09-16 00:41:00,49.9,47.4,29.65,ENE,68,0.0,0.0,91,0.00,,,0.00,WUHU216HW,2013-09-16 05:41:00,
2013-09-16 00:46:00,49.7,47.2,29.65,ENE,68,0.0,0.0,91,0.00,,,0.00,WUHU216HW,2013-09-16 05:46:00,
2013-09-16 00:51:00,49.3,46.8,29.65,ENE,68,0.0,0.0,91,0.00,,,0.00,WUHU216HW,2013-09-16 05:51:00,
2013-09-16 00:56:00,49.3,46.8,29.65,ENE,68,0.0,0.0,91,0.00,,,0.00,WUHU216HW,2013-09-16 05:56:00,
2013-09-16 01:01:00,49.3,47.1,29.65,ENE,68,0.0,0.0,92,0.00,,,0.00,WUHU216HW,2013-09-16 06:01:00,
2013-09-16 01:06:00,49.3,46.8,29.65,ENE,68,0.0,0.0,91,0.00,,,0.00,WUHU216HW,2013-09-16 06:06:00,
2013-09-16 01:11:00,49.1,46.9,29.66,ENE,68,0.0,0.0,92,0.00,,,0.00,WUHU216HW,2013-09-16 06:11:00,
2013-09-16 01:16:00,49.1,46.9,29.66,ENE,68,0.0,0.0,92,0.00,,,0.00,WUHU216HW,2013-09-16 06:16:00,
2013-09-16 01:21:00,49.0,46.8,29.66,ENE,68,0.0,0.0,92,0.00,,,0.00,WUHU216HW,2013-09-16 06:21:00,
2013-09-16 01:26:00,49.1,46.9,29.66,ENE,68,0.0,0.0,92,0.00,,,0.00,WUHU216HW,2013-09-16 06:26:00,
2013-09-16 01:31:00,49.0,46.8,29.66,ENE,68,0.0,0.0,92,0.00,,,0.00,WUHU216HW,2013-09-16 06:31:00,
2013-09-16 01:36:00,49.0,46.8,29.66,ENE,68,0.0,0.0,92,0.00,,,0.00,WUHU216HW,2013-09-16 06:36:00,
2013-09-16 01:41:00,48.8,46.6,29.66,ENE,68,0.0,0.0,92,0.00,,,0.00,WUHU216HW,2013-09-16 06:41:00,
2013-09-16 01:46:00,48.6,46.4,29.66,ENE,68,0.0,0.0,92,0.00,,,0.00,WUHU216HW,2013-09-16 06:46:00,
2013-09-16 01:51:00,48.4,46.2,29.66,ENE,68,0.0,0.0,92,0.00,,,0.00,WUHU216HW,2013-09-16 06:51:00,
2013-09-16 01:56:00,48.2,46.0,29.66,ENE,68,0.0,0.0,92,0.00,,,0.00,WUHU216HW,2013-09-16 06:56:00,
2013-09-16 02:01:00,48.2,46.0,29.66,ENE,68,0.0,0.0,92,0.00,,,0.00,WUHU216HW,2013-09-16 07:01:00,
2013-09-16 02:06:00,48.2,46.0,29.66,ENE,68,0.0,0.0,92,0.00,,,0.00,WUHU216HW,2013-09-16 07:06:00,
2013-09-16 02:11:00,48.2,46.0,29.66,ENE,68,0.0,0.0,92,0.00,,,0.00,WUHU216HW,2013-09-16 07:11:00,
2013-09-16 02:16:00,48.2,46.0,29.66,ENE,68,0.0,0.0,92,0.00,,,0.00,WUHU216HW,2013-09-16 07:16:00,
2013-09-16 02:21:00,48.2,46.0,29.66,ENE,68,0.0,0.0,92,0.00,,,0.00,WUHU216HW,2013-09-16 07:21:00,
2013-09-16 02:26:00,48.6,46.4,29.66,ENE,68,0.0,0.0,92,0.00,,,0.00,WUHU216HW,2013-09-16 07:26:00,
2013-09-16 02:31:00,49.3,47.3,29.66,ENE,68,0.2,0.2,93,0.00,,,0.00,WUHU216HW,2013-09-16 07:31:00,
2013-09-16 02:36:00,49.9,47.9,29.66,ENE,68,0.2,0.2,93,0.00,,,0.00,WUHU216HW,2013-09-16 07:36:00,
2013-09-16 02:41:00,49.9,47.9,29.66,East,90,0.4,0.4,93,0.00,,,0.00,WUHU216HW,2013-09-16 07:41:00,
2013-09-16 02:46:00,50.0,48.0,29.66,ENE,68,0.2,0.4,93,0.00,,,0.00,WUHU216HW,2013-09-16 07:46:00,
2013-09-16 02:51:00,50.4,48.4,29.66,ESE,123,0.3,0.4,93,0.00,,,0.00,WUHU216HW,2013-09-16 07:51:00,
2013-09-16 02:56:00,50.4,48.4,29.66,East,90,0.2,0.4,93,0.00,,,0.00,WUHU216HW,2013-09-16 07:56:00,
2013-09-16 03:01:00,50.4,48.4,29.66,ENE,68,0.4,0.4,93,0.00,,,0.00,WUHU216HW,2013-09-16 08:01:00,
2013-09-16 03:06:00,50.4,48.4,29.66,ENE,68,0.2,0.4,93,0.00,,,0.00,WUHU216HW,2013-09-16 08:06:00,
2013-09-16 03:11:00,50.6,48.6,29.66,ENE,68,0.0,0.4,93,0.00,,,0.00,WUHU216HW,2013-09-16 08:11:00,
2013-09-16 03:16:00,50.8,48.8,29.66,East,90,0.0,0.2,93,0.00,,,0.00,WUHU216HW,2013-09-16 08:16:00,
2013-09-16 03:21:00,50.9,48.9,29.67,ENE,68,0.3,0.4,93,0.00,,,0.00,WUHU216HW,2013-09-16 08:21:00,
2013-09-16 03:26:00,51.3,49.3,29.67,NE,45,1.3,1.8,93,0.00,,,0.00,WUHU216HW,2013-09-16 08:26:00,
2013-09-16 03:31:00,51.5,49.5,29.67,ENE,68,0.4,1.8,93,0.00,,,0.00,WUHU216HW,2013-09-16 08:31:00,
2013-09-16 03:36:00,51.3,49.3,29.68,NE,43,0.8,1.3,93,0.00,,,0.00,WUHU216HW,2013-09-16 08:36:00,
2013-09-16 03:41:00,51.3,49.6,29.68,ENE,68,0.2,1.1,94,0.00,,,0.00,WUHU216HW,2013-09-16 08:41:00,
2013-09-16 03:46:00,51.1,49.4,29.68,ENE,68,0.0,0.4,94,0.00,,,0.00,WUHU216HW,2013-09-16 08:46:00,
2013-09-16 03:51:00,50.9,49.2,29.68,NE,45,0.4,0.4,94,0.00,,,0.00,WUHU216HW,2013-09-16 08:51:00,
2013-09-16 03:56:00,50.9,49.2,29.68,NE,51,0.2,0.4,94,0.00,,,0.00,WUHU216HW,2013-09-16 08:56:00,
2013-09-16 04:01:00,50.8,49.1,29.68,NE,45,0.0,0.4,94,0.00,,,0.00,WUHU216HW,2013-09-16 09:01:00,
2013-09-16 04:06:00,50.8,49.1,29.68,NE,45,0.0,0.4,94,0.00,,,0.00,WUHU216HW,2013-09-16 09:06:00,
2013-09-16 04:11:00,50.6,48.9,29.68,ENE,68,0.0,0.7,94,0.00,,,0.00,WUHU216HW,2013-09-16 09:11:00,
2013-09-16 04:16:00,50.6,48.9,29.68,North,0,1.1,1.1,94,0.00,,,0.00,WUHU216HW,2013-09-16 09:16:00,
2013-09-16 04:21:00,50.8,49.1,29.69,ENE,68,0.0,1.1,94,0.00,,,0.00,WUHU216HW,2013-09-16 09:21:00,
2013-09-16 04:26:00,50.8,49.1,29.69,NNE,23,0.4,1.1,94,0.00,,,0.00,WUHU216HW,2013-09-16 09:26:00,
2013-09-16 04:31:00,51.7,50.0,29.69,ENE,68,0.4,2.0,94,0.00,,,0.00,WUHU216HW,2013-09-16 09:31:00,
2013-09-16 04:36:00,51.8,50.1,29.69,North,8,0.5,2.0,94,0.00,,,0.00,WUHU216HW,2013-09-16 09:36:00,
2013-09-16 04:41:00,51.8,50.1,29.70,East,90,0.7,1.1,94,0.00,,,0.00,WUHU216HW,2013-09-16 09:41:00,
2013-09-16 04:46:00,52.0,50.3,29.70,ENE,68,1.1,1.8,94,0.00,,,0.00,WUHU216HW,2013-09-16 09:46:00,
2013-09-16 04:51:00,52.2,50.5,29.70,North,0,0.9,1.8,94,0.00,,,0.00,WUHU216HW,2013-09-16 09:51:00,
2013-09-16 04:56:00,52.4,50.7,29.70,NE,45,0.4,1.8,94,0.00,,,0.00,WUHU216HW,2013-09-16 09:56:00,
2013-09-16 05:01:00,53.1,51.7,29.70,NE,45,0.7,1.8,95,0.00,,,0.00,WUHU216HW,2013-09-16 10:01:00,
2013-09-16 05:06:00,53.5,52.1,29.70,ENE,68,2.7,2.7,95,0.00,,,0.00,WUHU216HW,2013-09-16 10:06:00,
2013-09-16 05:11:00,53.8,52.4,29.71,NNE,23,1.8,2.7,95,0.00,,,0.00,WUHU216HW,2013-09-16 10:11:00,
2013-09-16 05:16:00,54.2,52.8,29.71,ENE,77,1.5,4.3,95,0.00,,,0.00,WUHU216HW,2013-09-16 10:16:00,
2013-09-16 05:21:00,54.4,53.0,29.71,East,90,0.9,4.3,95,0.00,,,0.00,WUHU216HW,2013-09-16 10:21:00,
2013-09-16 05:26:00,54.5,53.1,29.71,East,89,1.7,3.1,95,0.00,,,0.00,WUHU216HW,2013-09-16 10:26:00,
2013-09-16 05:31:00,54.7,53.3,29.71,NE,50,1.7,3.8,95,0.00,,,0.00,WUHU216HW,2013-09-16 10:31:00,
2013-09-16 05:36:00,54.7,53.3,29.71,ESE,113,1.8,3.8,95,0.00,,,0.00,WUHU216HW,2013-09-16 10:36:00,
2013-09-16 05:41:00,54.7,53.3,29.71,NNE,23,0.4,2.0,95,0.00,,,0.00,WUHU216HW,2013-09-16 10:41:00,
2013-09-16 05:46:00,54.7,53.3,29.72,ENE,68,0.9,2.5,95,0.00,,,0.00,WUHU216HW,2013-09-16 10:46:00,
2013-09-16 05:51:00,54.9,53.5,29.72,East,86,0.9,2.5,95,0.00,,,0.00,WUHU216HW,2013-09-16 10:51:00,
2013-09-16 05:56:00,54.9,53.5,29.72,SSW,196,1.9,2.5,95,0.00,,,0.00,WUHU216HW,2013-09-16 10:56:00,
2013-09-16 06:01:00,54.9,53.5,29.72,ENE,63,0.6,2.5,95,0.00,,,0.00,WUHU216HW,2013-09-16 11:01:00,
2013-09-16 06:06:00,55.1,53.7,29.72,East,83,0.5,0.9,95,0.00,,,0.00,WUHU216HW,2013-09-16 11:06:00,
2013-09-16 06:11:00,55.1,53.7,29.72,ENE,65,3.0,4.7,95,0.00,,,0.00,WUHU216HW,2013-09-16 11:11:00,
2013-09-16 06:16:00,55.1,53.7,29.72,East,80,1.4,4.7,95,0.00,,,0.00,WUHU216HW,2013-09-16 11:16:00,
2013-09-16 06:21:00,55.1,53.7,29.73,North,0,0.9,3.4,95,0.00,,,0.00,WUHU216HW,2013-09-16 11:21:00,
2013-09-16 06:26:00,55.1,54.0,29.73,East,90,2.5,2.5,96,0.00,,,0.00,WUHU216HW,2013-09-16 11:26:00,
2013-09-16 06:31:00,55.1,53.7,29.73,NE,45,1.1,3.8,95,0.00,,,0.00,WUHU216HW,2013-09-16 11:31:00,
2013-09-16 06:36:00,55.1,54.0,29.73,ENE,73,1.6,3.8,96,0.00,,,0.00,WUHU216HW,2013-09-16 11:36:00,
2013-09-16 06:41:00,55.1,53.7,29.73,WNW,293,0.2,3.6,95,0.00,,,0.00,WUHU216HW,2013-09-16 11:41:00,
2013-09-16 06:46:00,55.1,53.7,29.73,ENE,68,0.7,1.6,95,0.00,,,0.00,WUHU216HW,2013-09-16 11:46:00,
2013-09-16 06:51:00,55.1,54.0,29.73,ENE,68,0.4,1.6,96,0.00,,,0.00,WUHU216HW,2013-09-16 11:51:00,
2013-09-16 06:56:00,55.3,53.9,29.73,ENE,70,0.3,1.3,95,0.00,,,0.00,WUHU216HW,2013-09-16 11:56:00,
2013-09-16 07:01:00,55.3,53.9,29.73,NE,36,1.9,2.5,95,0.00,,,0.00,WUHU216HW,2013-09-16 12:01:00,
2013-09-16 07:06:00,55.3,54.2,29.74,ENE,72,0.5,2.5,96,0.00,,,0.00,WUHU216HW,2013-09-16 12:06:00,
2013-09-16 07:11:00,55.4,54.0,29.74,North,5,0.7,1.1,95,0.00,,,0.00,WUHU216HW,2013-09-16 12:11:00,
2013-09-16 07:16:00,55.4,54.0,29.74,East,90,1.6,2.2,95,0.00,,,0.00,WUHU216HW,2013-09-16 12:16:00,
2013-09-16 07:21:00,55.4,54.0,29.74,ENE,60,1.0,2.2,95,0.00,,,0.00,WUHU216HW,2013-09-16 12:21:00,
2013-09-16 07:26:00,55.4,54.0,29.75,NE,45,0.4,2.7,95,0.00,,,0.00,WUHU216HW,2013-09-16 12:26:00,
2013-09-16 07:31:00,55.6,54.2,29.75,ENE,70,2.0,2.7,95,0.00,,,0.00,WUHU216HW,2013-09-16 12:31:00,
2013-09-16 07:36:00,55.8,54.4,29.75,NE,49,0.9,2.7,95,0.00,,,0.00,WUHU216HW,2013-09-16 12:36:00,
2013-09-16 07:41:00,55.6,54.2,29.75,ESE,104,1.4,3.1,95,0.00,,,0.00,WUHU216HW,2013-09-16 12:41:00,
2013-09-16 07:46:00,55.6,54.2,29.75,ENE,66,0.5,3.1,95,0.00,,,0.00,WUHU216HW,2013-09-16 12:46:00,
2013-09-16 07:51:00,55.8,54.4,29.76,ENE,68,2.5,3.4,95,0.00,,,0.00,WUHU216HW,2013-09-16 12:51:00,
2013-09-16 07:56:00,55.6,54.2,29.76,NE,39,1.4,3.4,95,0.00,,,0.00,WUHU216HW,2013-09-16 12:56:00,
2013-09-16 08:01:00,55.8,54.4,29.76,NE,55,1.7,3.4,95,0.00,,,0.00,WUHU216HW,2013-09-16 13:01:00,
2013-09-16 08:06:00,55.8,54.1,29.76,ENE,73,1.5,2.7,94,0.00,,,0.00,WUHU216HW,2013-09-16 13:06:00,
2013-09-16 08:11:00,56.0,54.3,29.76,ENE,60,0.6,2.9,94,0.00,,,0.00,WUHU216HW,2013-09-16 13:11:00,
2013-09-16 08:16:00,56.0,54.3,29.76,NE,56,1.0,2.9,94,0.00,,,0.00,WUHU216HW,2013-09-16 13:16:00,
2013-09-16 08:21:00,56.2,54.2,29.76,North,353,0.8,2.2,93,0.00,,,0.00,WUHU216HW,2013-09-16 13:21:00,
2013-09-16 08:26:00,56.2,54.2,29.76,NE,45,2.2,2.9,93,0.00,,,0.00,WUHU216HW,2013-09-16 13:26:00,
2013-09-16 08:31:00,56.3,54.3,29.76,ENE,60,1.9,4.0,93,0.00,,,0.00,WUHU216HW,2013-09-16 13:31:00,
2013-09-16 08:36:00,56.3,54.0,29.76,ESE,113,2.5,4.0,92,0.00,,,0.00,WUHU216HW,2013-09-16 13:36:00,
2013-09-16 08:41:00,56.5,54.2,29.76,ENE,68,3.4,3.6,92,0.00,,,0.00,WUHU216HW,2013-09-16 13:41:00,
2013-09-16 08:46:00,56.7,54.4,29.76,NE,42,1.3,3.6,92,0.00,,,0.00,WUHU216HW,2013-09-16 13:46:00,
2013-09-16 08:51:00,56.9,54.3,29.76,WSW,248,0.7,3.4,91,0.00,,,0.00,WUHU216HW,2013-09-16 13:51:00,
2013-09-16 08:56:00,57.1,54.5,29.77,East,90,0.9,2.7,91,0.00,,,0.00,WUHU216HW,2013-09-16 13:56:00,
2013-09-16 09:01:00,57.2,54.6,29.77,ESE,113,1.3,3.6,91,0.00,,,0.00,WUHU216HW,2013-09-16 14:01:00,
2013-09-16 09:06:00,57.2,54.3,29.77,East,90,3.8,3.8,90,0.00,,,0.00,WUHU216HW,2013-09-16 14:06:00,
2013-09-16 09:11:00,57.2,54.0,29.78,NNE,23,1.8,3.8,89,0.00,,,0.00,WUHU216HW,2013-09-16 14:11:00,
2013-09-16 09:16:00,57.6,54.1,29.78,East,82,1.5,3.8,88,0.00,,,0.00,WUHU216HW,2013-09-16 14:16:00,
2013-09-16 09:21:00,57.4,54.2,29.78,NE,45,2.9,5.4,89,0.00,,,0.00,WUHU216HW,2013-09-16 14:21:00,
2013-09-16 09:26:00,57.4,53.9,29.78,NE,45,3.6,6.9,88,0.00,,,0.00,WUHU216HW,2013-09-16 14:26:00,
2013-09-16 09:31:00,57.6,54.1,29.78,ENE,66,2.7,6.9,88,0.00,,,0.00,WUHU216HW,2013-09-16 14:31:00,
2013-09-16 09:36:00,57.6,53.8,29.78,ESE,113,3.4,5.8,87,0.00,,,0.00,WUHU216HW,2013-09-16 14:36:00,
2013-09-16 09:41:00,58.0,53.9,29.79,ESE,113,1.8,5.8,86,0.00,,,0.00,WUHU216HW,2013-09-16 14:41:00,
2013-09-16 09:46:00,58.0,53.9,29.78,ENE,68,2.5,5.6,86,0.00,,,0.00,WUHU216HW,2013-09-16 14:46:00,
2013-09-16 09:51:00,58.1,53.6,29.78,East,81,3.8,5.4,85,0.00,,,0.00,WUHU216HW,2013-09-16 14:51:00,
2013-09-16 09:56:00,58.7,53.9,29.79,NE,45,5.6,5.6,84,0.00,,,0.00,WUHU216HW,2013-09-16 14:56:00,
2013-09-16 10:01:00,58.7,53.9,29.79,NE,45,2.7,5.6,84,0.00,,,0.00,WUHU216HW,2013-09-16 15:01:00,
2013-09-16 10:06:00,58.5,53.7,29.79,ENE,62,2.6,5.6,84,0.00,,,0.00,WUHU216HW,2013-09-16 15:06:00,
2013-09-16 10:11:00,58.5,53.7,29.79,NE,38,1.6,4.0,84,0.00,,,0.00,WUHU216HW,2013-09-16 15:11:00,
2013-09-16 10:16:00,58.7,53.9,29.79,ENE,75,1.5,4.3,84,0.00,,,0.00,WUHU216HW,2013-09-16 15:16:00,
2013-09-16 10:21:00,58.3,53.2,29.79,ENE,68,3.4,4.9,83,0.00,,,0.00,WUHU216HW,2013-09-16 15:21:00,
2013-09-16 10:26:00,58.3,53.5,29.79,ESE,113,2.5,5.1,84,0.00,,,0.00,WUHU216HW,2013-09-16 15:26:00,
2013-09-16 10:31:00,58.9,53.5,29.80,NNW,338,3.8,5.4,82,0.00,,,0.00,WUHU216HW,2013-09-16 15:31:00,
2013-09-16 10:36:00,59.6,54.5,29.79,ENE,69,1.2,5.4,83,0.00,,,0.00,WUHU216HW,2013-09-16 15:36:00,
2013-09-16 10:41:00,60.3,54.2,29.80,East,90,3.4,4.0,80,0.00,,,0.00,WUHU216HW,2013-09-16 15:41:00,
2013-09-16 10:46:00,59.8,53.4,29.79,NE,45,3.8,6.0,79,0.00,,,0.00,WUHU216HW,2013-09-16 15:46:00,
2013-09-16 10:51:00,60.1,54.0,29.80,ESE,113,3.4,6.0,80,0.00,,,0.00,WUHU216HW,2013-09-16 15:51:00,
2013-09-16 10:56:00,60.5,53.4,29.80,East,90,7.6,7.6,77,0.00,,,0.00,WUHU216HW,2013-09-16 15:56:00,
2013-09-16 11:01:00,60.1,53.3,29.80,ENE,74,3.7,7.6,78,0.00,,,0.00,WUHU216HW,2013-09-16 16:01:00,
2013-09-16 11:06:00,60.3,53.5,29.80,East,90,5.6,7.6,78,0.00,,,0.00,WUHU216HW,2013-09-16 16:06:00,
2013-09-16 11:11:00,60.3,53.2,29.80,ENE,68,4.5,6.9,77,0.00,,,0.00,WUHU216HW,2013-09-16 16:11:00,
2013-09-16 11:16:00,60.7,54.2,29.80,West,275,1.8,6.3,79,0.00,,,0.00,WUHU216HW,2013-09-16 16:16:00,
2013-09-16 11:21:00,60.8,53.3,29.80,East,90,4.3,5.4,76,0.00,,,0.00,WUHU216HW,2013-09-16 16:21:00,
2013-09-16 11:26:00,60.8,53.7,29.80,East,81,1.0,4.3,77,0.00,,,0.00,WUHU216HW,2013-09-16 16:26:00,
2013-09-16 11:31:00,61.7,54.5,29.79,ENE,73,1.5,4.0,77,0.00,,,0.00,WUHU216HW,2013-09-16 16:31:00,
2013-09-16 11:36:00,62.8,54.9,29.80,North,0,2.5,3.4,75,0.00,,,0.00,WUHU216HW,2013-09-16 16:36:00,
2013-09-16 11:41:00,62.8,54.9,29.80,East,90,3.4,3.6,75,0.00,,,0.00,WUHU216HW,2013-09-16 16:41:00,
2013-09-16 11:46:00,63.0,55.1,29.79,East,90,2.9,3.6,75,0.00,,,0.00,WUHU216HW,2013-09-16 16:46:00,
2013-09-16 11:51:00,63.7,54.7,29.79,ENE,68,6.9,6.9,72,0.00,,,0.00,WUHU216HW,2013-09-16 16:51:00,
2013-09-16 11:56:00,63.7,55.4,29.79,SW,227,0.9,6.9,74,0.00,,,0.00,WUHU216HW,2013-09-16 16:56:00,
2013-09-16 12:01:00,64.6,55.5,29.79,ENE,68,1.1,6.9,72,0.00,,,0.00,WUHU216HW,2013-09-16 17:01:00,
2013-09-16 12:06:00,64.4,55.4,29.79,NE,51,1.5,4.0,72,0.00,,,0.00,WUHU216HW,2013-09-16 17:06:00,
2013-09-16 12:11:00,65.2,55.7,29.79,NE,45,1.3,3.8,71,0.00,,,0.00,WUHU216HW,2013-09-16 17:11:00,
2013-09-16 12:16:00,65.3,55.5,29.80,NE,45,3.4,3.4,70,0.00,,,0.00,WUHU216HW,2013-09-16 17:16:00,
2013-09-16 12:21:00,65.2,55.4,29.80,NNE,17,1.3,4.3,70,0.00,,,0.00,WUHU216HW,2013-09-16 17:21:00,
2013-09-16 12:26:00,65.5,55.3,29.79,NNE,32,1.4,4.3,69,0.00,,,0.00,WUHU216HW,2013-09-16 17:26:00,
2013-09-16 12:31:00,65.5,55.3,29.79,ENE,71,1.3,4.5,69,0.00,,,0.00,WUHU216HW,2013-09-16 17:31:00,
2013-09-16 12:36:00,64.6,54.4,29.80,East,90,2.2,4.5,69,0.00,,,0.00,WUHU216HW,2013-09-16 17:36:00,
2013-09-16 12:41:00,64.1,54.7,29.80,NE,45,3.4,4.3,71,0.00,,,0.00,WUHU216HW,2013-09-16 17:41:00,
2013-09-16 12:46:00,65.0,55.6,29.79,East,90,1.3,4.3,71,0.00,,,0.00,WUHU216HW,2013-09-16 17:46:00,
2013-09-16 12:51:00,65.9,55.2,29.79,NE,45,3.8,4.7,68,0.00,,,0.00,WUHU216HW,2013-09-16 17:51:00,
2013-09-16 12:56:00,66.4,54.9,29.79,ENE,68,4.0,6.3,66,0.00,,,0.00,WUHU216HW,2013-09-16 17:56:00,
2013-09-16 13:01:00,67.1,56.4,29.79,ENE,62,1.4,6.3,68,0.00,,,0.00,WUHU216HW,2013-09-16 18:01:00,
2013-09-16 13:06:00,68.0,56.0,29.78,ENE,67,2.1,5.1,65,0.00,,,0.00,WUHU216HW,2013-09-16 18:06:00,
2013-09-16 13:11:00,69.3,57.7,29.78,WSW,248,1.0,5.1,66,0.00,,,0.00,WUHU216HW,2013-09-16 18:11:00,
2013-09-16 13:16:00,70.2,57.2,29.78,NE,45,1.1,4.7,63,0.00,,,0.00,WUHU216HW,2013-09-16 18:16:00,
2013-09-16 13:21:00,70.2,56.8,29.78,NW,315,0.9,4.7,62,0.00,,,0.00,WUHU216HW,2013-09-16 18:21:00,
2013-09-16 13:26:00,71.8,58.8,29.78,ESE,113,0.9,4.7,63,0.00,,,0.00,WUHU216HW,2013-09-16 18:26:00,
2013-09-16 13:31:00,71.6,56.3,29.78,ENE,68,2.7,5.1,58,0.00,,,0.00,WUHU216HW,2013-09-16 18:31:00,
2013-09-16 13:36:00,70.6,56.3,29.77,East,97,2.0,6.3,60,0.00,,,0.00,WUHU216HW,2013-09-16 18:36:00,
2013-09-16 13:41:00,71.1,56.3,29.77,WSW,248,1.8,6.3,59,0.00,,,0.00,WUHU216HW,2013-09-16 18:41:00,
2013-09-16 13:46:00,72.7,57.8,29.77,NE,43,2.2,4.5,59,0.00,,,0.00,WUHU216HW,2013-09-16 18:46:00,
2013-09-16 13:51:00,72.9,57.5,29.77,East,90,1.8,3.4,58,0.00,,,0.00,WUHU216HW,2013-09-16 18:51:00,
2013-09-16 13:56:00,72.7,56.8,29.76,East,90,2.0,5.1,57,0.00,,,0.00,WUHU216HW,2013-09-16 18:56:00,
2013-09-16 14:01:00,72.2,56.3,29.76,NE,52,1.9,5.1,57,0.00,,,0.00,WUHU216HW,2013-09-16 19:01:00,
2013-09-16 14:06:00,72.4,56.5,29.76,South,172,1.0,3.8,57,0.00,,,0.00,WUHU216HW,2013-09-16 19:06:00,
2013-09-16 14:11:00,74.2,57.7,29.76,ENE,65,1.7,2.9,56,0.00,,,0.00,WUHU216HW,2013-09-16 19:11:00,
2013-09-16 14:16:00,75.4,58.3,29.75,ENE,77,0.5,2.7,55,0.00,,,0.00,WUHU216HW,2013-09-16 19:16:00,
2013-09-16 14:21:00,74.7,56.1,29.75,ENE,68,1.6,4.3,52,0.00,,,0.00,WUHU216HW,2013-09-16 19:21:00,
2013-09-16 14:26:00,74.5,55.9,29.75,ENE,68,2.2,4.3,52,0.00,,,0.00,WUHU216HW,2013-09-16 19:26:00,
2013-09-16 14:31:00,73.6,56.6,29.75,ENE,58,1.2,5.4,55,0.00,,,0.00,WUHU216HW,2013-09-16 19:31:00,
2013-09-16 14:36:00,75.4,56.7,29.74,ENE,68,1.9,5.4,52,0.00,,,0.00,WUHU216HW,2013-09-16 19:36:00,
2013-09-16 14:41:00,74.3,54.6,29.74,ENE,68,3.6,4.5,50,0.00,,,0.00,WUHU216HW,2013-09-16 19:41:00,
2013-09-16 14:46:00,74.2,55.1,29.74,NNW,338,2.0,4.5,51,0.00,,,0.00,WUHU216HW,2013-09-16 19:46:00,
2013-09-16 14:51:00,74.2,55.1,29.74,ENE,62,2.2,6.3,51,0.00,,,0.00,WUHU216HW,2013-09-16 19:51:00,
2013-09-16 14:56:00,74.3,54.6,29.74,WNW,293,2.5,6.3,50,0.00,,,0.00,WUHU216HW,2013-09-16 19:56:00,
2013-09-16 15:01:00,76.0,57.3,29.73,NNE,19,0.3,3.4,52,0.00,,,0.00,WUHU216HW,2013-09-16 20:01:00,
2013-09-16 15:06:00,77.4,56.9,29.73,NE,56,1.8,2.5,49,0.00,,,0.00,WUHU216HW,2013-09-16 20:06:00,
2013-09-16 15:11:00,77.2,54.9,29.73,ENE,75,3.1,5.1,46,0.00,,,0.00,WUHU216HW,2013-09-16 20:11:00,
2013-09-16 15:16:00,77.0,56.5,29.73,ENE,68,0.9,5.1,49,0.00,,,0.00,WUHU216HW,2013-09-16 20:16:00,
2013-09-16 15:21:00,76.1,53.9,29.73,ENE,68,4.7,5.4,46,0.00,,,0.00,WUHU216HW,2013-09-16 20:21:00,
2013-09-16 15:26:00,75.2,54.9,29.73,ENE,58,1.5,5.4,49,0.00,,,0.00,WUHU216HW,2013-09-16 20:26:00,
2013-09-16 15:31:00,75.1,54.8,29.73,ENE,59,2.3,5.4,49,0.00,,,0.00,WUHU216HW,2013-09-16 20:31:00,
2013-09-16 15:36:00,77.0,55.9,29.73,ENE,68,1.1,5.4,48,0.00,,,0.00,WUHU216HW,2013-09-16 20:36:00,
2013-09-16 15:41:00,78.1,55.7,29.73,ENE,68,2.0,3.6,46,0.00,,,0.00,WUHU216HW,2013-09-16 20:41:00,
2013-09-16 15:46:00,78.5,56.1,29.72,NE,45,1.8,3.6,46,0.00,,,0.00,WUHU216HW,2013-09-16 20:46:00,
2013-09-16 15:51:00,77.8,55.4,29.72,East,96,1.6,3.8,46,0.00,,,0.00,WUHU216HW,2013-09-16 20:51:00,
2013-09-16 15:56:00,77.4,55.7,29.72,ENE,68,1.6,3.8,47,0.00,,,0.00,WUHU216HW,2013-09-16 20:56:00,
2013-09-16 16:01:00,77.8,55.4,29.72,NNE,18,1.4,4.0,46,0.00,,,0.00,WUHU216HW,2013-09-16 21:01:00,
2013-09-16 16:06:00,76.7,54.4,29.72,ENE,62,2.1,5.4,46,0.00,,,0.00,WUHU216HW,2013-09-16 21:06:00,
2013-09-16 16:11:00,75.4,54.5,29.71,NE,35,1.1,5.4,48,0.00,,,0.00,WUHU216HW,2013-09-16 21:11:00,
2013-09-16 16:16:00,76.5,56.1,29.71,North,0,2.7,5.1,49,0.00,,,0.00,WUHU216HW,2013-09-16 21:16:00,
2013-09-16 16:21:00,76.7,55.1,29.71,ENE,68,2.0,4.0,47,0.00,,,0.00,WUHU216HW,2013-09-16 21:21:00,
2013-09-16 16:26:00,77.0,54.1,29.71,WNW,293,2.2,4.0,45,0.00,,,0.00,WUHU216HW,2013-09-16 21:26:00,
2013-09-16 16:31:00,76.3,54.1,29.71,ENE,61,2.6,4.0,46,0.00,,,0.00,WUHU216HW,2013-09-16 21:31:00,
2013-09-16 16:36:00,76.3,54.7,29.71,ENE,68,3.1,3.6,47,0.00,,,0.00,WUHU216HW,2013-09-16 21:36:00,
2013-09-16 16:41:00,77.0,54.7,29.71,East,85,1.6,3.6,46,0.00,,,0.00,WUHU216HW,2013-09-16 21:41:00,
2013-09-16 16:46:00,77.8,55.4,29.71,ENE,68,2.0,3.1,46,0.00,,,0.00,WUHU216HW,2013-09-16 21:46:00,
2013-09-16 16:51:00,76.5,53.6,29.71,ENE,67,3.1,5.4,45,0.00,,,0.00,WUHU216HW,2013-09-16 21:51:00,
2013-09-16 16:56:00,75.8,53.0,29.71,East,90,3.8,5.4,45,0.00,,,0.00,WUHU216HW,2013-09-16 21:56:00,
2013-09-16 17:01:00,75.1,54.2,29.71,ENE,68,2.0,5.4,48,0.00,,,0.00,WUHU216HW,2013-09-16 22:01:00,
2013-09-16 17:06:00,75.2,53.1,29.71,ENE,61,1.1,4.7,46,0.00,,,0.00,WUHU216HW,2013-09-16 22:06:00,
2013-09-16 17:11:00,77.2,56.1,29.71,SW,225,0.2,2.5,48,0.00,,,0.00,WUHU216HW,2013-09-16 22:11:00,
2013-09-16 17:16:00,76.0,53.8,29.71,East,98,3.5,4.7,46,0.00,,,0.00,WUHU216HW,2013-09-16 22:16:00,
2013-09-16 17:21:00,73.1,54.0,29.70,East,86,2.4,5.4,51,0.00,,,0.00,WUHU216HW,2013-09-16 22:21:00,
2013-09-16 17:26:00,71.8,53.4,29.70,ENE,68,2.0,5.4,52,0.00,,,0.00,WUHU216HW,2013-09-16 22:26:00,
2013-09-16 17:31:00,71.3,54.0,29.70,ENE,68,0.7,4.3,54,0.00,,,0.00,WUHU216HW,2013-09-16 22:31:00,
2013-09-16 17:36:00,70.2,52.9,29.70,ENE,71,3.8,4.7,54,0.00,,,0.00,WUHU216HW,2013-09-16 22:36:00,
2013-09-16 17:41:00,69.5,52.8,29.70,SE,135,1.8,4.7,55,0.00,,,0.00,WUHU216HW,2013-09-16 22:41:00,
2013-09-16 17:46:00,69.5,52.8,29.70,ENE,76,3.4,4.7,55,0.00,,,0.00,WUHU216HW,2013-09-16 22:46:00,
2013-09-16 17:51:00,69.1,52.9,29.70,East,83,1.5,4.3,56,0.00,,,0.00,WUHU216HW,2013-09-16 22:51:00,
2013-09-16 17:56:00,68.9,52.2,29.70,ENE,72,2.4,3.1,55,0.00,,,0.00,WUHU216HW,2013-09-16 22:56:00,
2013-09-16 18:01:00,68.8,52.1,29.70,NE,45,3.4,4.0,55,0.00,,,0.00,WUHU216HW,2013-09-16 23:01:00,
2013-09-16 18:06:00,68.6,52.5,29.70,ENE,68,4.0,4.0,56,0.00,,,0.00,WUHU216HW,2013-09-16 23:06:00,
2013-09-16 18:11:00,68.0,51.9,29.70,ENE,75,1.5,4.0,56,0.00,,,0.00,WUHU216HW,2013-09-16 23:11:00,
2013-09-16 18:16:00,67.7,52.1,29.70,ENE,68,1.3,4.0,57,0.00,,,0.00,WUHU216HW,2013-09-16 23:16:00,
2013-09-16 18:21:00,67.3,51.7,29.70,ENE,64,1.0,2.2,57,0.00,,,0.00,WUHU216HW,2013-09-16 23:21:00,
2013-09-16 18:26:00,67.0,51.4,29.70,ESE,113,0.9,2.7,57,0.00,,,0.00,WUHU216HW,2013-09-16 23:26:00,
2013-09-16 18:31:00,66.6,51.6,29.70,East,90,0.8,2.7,58,0.00,,,0.00,WUHU216HW,2013-09-16 23:31:00,
2013-09-16 18:36:00,66.1,53.4,29.70,WNW,293,0.0,2.2,63,0.00,,,0.00,WUHU216HW,2013-09-16 23:36:00,
2013-09-16 18:41:00,65.0,51.9,29.70,North,0,0.4,0.4,62,0.00,,,0.00,WUHU216HW,2013-09-16 23:41:00,
2013-09-16 18:46:00,64.4,51.3,29.69,NE,45,0.4,0.4,62,0.00,,,0.00,WUHU216HW,2013-09-16 23:46:00,
2013-09-16 18:51:00,63.7,51.5,29.69,NW,315,0.4,0.7,64,0.00,,,0.00,WUHU216HW,2013-09-16 23:51:00,
2013-09-16 18:56:00,63.2,51.9,29.69,NW,315,0.0,0.7,66,0.00,,,0.00,WUHU216HW,2013-09-16 23:56:00,
2013-09-16 19:01:00,62.1,52.0,29.69,NW,315,0.0,0.0,69,0.00,,,0.00,WUHU216HW,2013-09-17 00:01:00,
2013-09-16 19:06:00,61.0,50.5,29.69,NW,315,0.0,0.0,68,0.00,,,0.00,WUHU216HW,2013-09-17 00:06:00,
2013-09-16 19:11:00,60.1,50.5,29.69,NW,315,0.0,0.0,70,0.00,,,0.00,WUHU216HW,2013-09-17 00:11:00,
2013-09-16 19:16:00,59.2,50.0,29.70,NW,315,0.0,0.0,71,0.00,,,0.00,WUHU216HW,2013-09-17 00:16:00,
2013-09-16 19:21:00,58.5,49.7,29.69,NW,315,0.0,0.0,72,0.00,,,0.00,WUHU216HW,2013-09-17 00:21:00,
2013-09-16 19:26:00,57.6,49.2,29.69,NW,315,0.0,0.0,73,0.00,,,0.00,WUHU216HW,2013-09-17 00:26:00,
2013-09-16 19:31:00,56.9,48.8,29.69,NW,315,0.0,0.0,74,0.00,,,0.00,WUHU216HW,2013-09-17 00:31:00,
2013-09-16 19:36:00,56.3,48.6,29.69,NW,315,0.0,0.0,75,0.00,,,0.00,WUHU216HW,2013-09-17 00:36:00,
2013-09-16 19:41:00,55.8,48.5,29.70,NW,315,0.0,0.0,76,0.00,,,0.00,WUHU216HW,2013-09-17 00:41:00,
2013-09-16 19:46:00,55.3,48.3,29.70,NW,315,0.0,0.0,77,0.00,,,0.00,WUHU216HW,2013-09-17 00:46:00,
2013-09-16 19:51:00,54.7,47.7,29.70,NW,315,0.0,0.0,77,0.00,,,0.00,WUHU216HW,2013-09-17 00:51:00,
2013-09-16 19:56:00,54.4,47.8,29.69,NW,315,0.0,0.0,78,0.00,,,0.00,WUHU216HW,2013-09-17 00:56:00,
2013-09-16 20:01:00,54.2,47.9,29.70,NW,315,0.0,0.0,79,0.00,,,0.00,WUHU216HW,2013-09-17 01:01:00,
2013-09-16 20:06:00,53.8,47.5,29.70,NW,315,0.0,0.0,79,0.00,,,0.00,WUHU216HW,2013-09-17 01:06:00,
2013-09-16 20:11:00,53.6,47.7,29.70,NW,315,0.0,0.0,80,0.00,,,0.00,WUHU216HW,2013-09-17 01:11:00,
2013-09-16 20:16:00,53.5,47.6,29.70,NW,315,0.0,0.0,80,0.00,,,0.00,WUHU216HW,2013-09-17 01:16:00,
2013-09-16 20:21:00,53.3,47.7,29.70,NNW,338,0.2,0.2,81,0.00,,,0.00,WUHU216HW,2013-09-17 01:21:00,
2013-09-16 20:26:00,53.1,47.5,29.70,NNW,338,0.0,0.2,81,0.00,,,0.00,WUHU216HW,2013-09-17 01:26:00,
2013-09-16 20:31:00,52.9,47.6,29.70,NNW,338,0.0,0.0,82,0.00,,,0.00,WUHU216HW,2013-09-17 01:31:00,
2013-09-16 20:36:00,52.9,47.9,29.69,NNW,338,0.0,0.0,83,0.00,,,0.00,WUHU216HW,2013-09-17 01:36:00,
2013-09-16 20:41:00,52.6,47.6,29.69,NNW,338,0.0,0.0,83,0.00,,,0.00,WUHU216HW,2013-09-17 01:41:00,
2013-09-16 20:46:00,52.2,47.2,29.70,NNW,338,0.0,0.0,83,0.00,,,0.00,WUHU216HW,2013-09-17 01:46:00,
2013-09-16 20:51:00,52.0,47.0,29.70,North,0,0.0,0.0,83,0.00,,,0.00,WUHU216HW,2013-09-17 01:51:00,
2013-09-16 20:56:00,51.8,47.2,29.70,NE,45,0.0,0.0,84,0.00,,,0.00,WUHU216HW,2013-09-17 01:56:00,
2013-09-16 21:01:00,51.7,47.1,29.70,NNE,23,0.0,0.0,84,0.00,,,0.00,WUHU216HW,2013-09-17 02:01:00,
2013-09-16 21:06:00,51.7,47.4,29.70,NNE,23,0.0,0.0,85,0.00,,,0.00,WUHU216HW,2013-09-17 02:06:00,
2013-09-16 21:11:00,51.5,47.2,29.70,North,0,0.0,0.0,85,0.00,,,0.00,WUHU216HW,2013-09-17 02:11:00,
2013-09-16 21:16:00,51.5,47.2,29.70,North,0,0.0,0.0,85,0.00,,,0.00,WUHU216HW,2013-09-17 02:16:00,
2013-09-16 21:21:00,51.5,47.2,29.70,North,0,0.0,0.0,85,0.00,,,0.00,WUHU216HW,2013-09-17 02:21:00,
2013-09-16 21:26:00,51.3,47.3,29.70,North,0,0.0,0.0,86,0.00,,,0.00,WUHU216HW,2013-09-17 02:26:00,
2013-09-16 21:31:00,51.1,47.1,29.70,NNE,23,0.0,0.0,86,0.00,,,0.00,WUHU216HW,2013-09-17 02:31:00,
2013-09-16 21:36:00,50.8,46.8,29.70,NNE,23,0.0,0.0,86,0.00,,,0.00,WUHU216HW,2013-09-17 02:36:00,
2013-09-16 21:41:00,50.8,47.1,29.70,NNE,23,0.0,0.0,87,0.00,,,0.00,WUHU216HW,2013-09-17 02:41:00,
2013-09-16 21:46:00,50.8,47.1,29.70,NNE,23,0.0,0.0,87,0.00,,,0.00,WUHU216HW,2013-09-17 02:46:00,
2013-09-16 21:51:00,50.6,46.9,29.70,NNE,23,0.0,0.0,87,0.00,,,0.00,WUHU216HW,2013-09-17 02:51:00,
2013-09-16 21:56:00,50.6,47.2,29.70,NNE,23,0.0,0.0,88,0.00,,,0.00,WUHU216HW,2013-09-17 02:56:00,
2013-09-16 22:01:00,50.6,46.9,29.70,NNW,338,0.0,0.0,87,0.00,,,0.00,WUHU216HW,2013-09-17 03:01:00,
2013-09-16 22:06:00,50.6,46.9,29.70,NNW,338,0.0,0.0,87,0.00,,,0.00,WUHU216HW,2013-09-17 03:06:00,
2013-09-16 22:11:00,50.6,47.2,29.70,North,0,0.0,0.0,88,0.00,,,0.00,WUHU216HW,2013-09-17 03:11:00,
2013-09-16 22:16:00,50.4,46.7,29.70,North,0,0.0,0.0,87,0.00,,,0.00,WUHU216HW,2013-09-17 03:16:00,
2013-09-16 22:21:00,50.4,47.0,29.70,ENE,68,0.0,0.0,88,0.00,,,0.00,WUHU216HW,2013-09-17 03:21:00,
2013-09-16 22:26:00,50.4,47.0,29.70,ENE,68,0.0,0.0,88,0.00,,,0.00,WUHU216HW,2013-09-17 03:26:00,
2013-09-16 22:31:00,50.2,46.8,29.70,NE,45,0.0,0.0,88,0.00,,,0.00,WUHU216HW,2013-09-17 03:31:00,
2013-09-16 22:36:00,50.0,46.6,29.71,NE,45,0.0,0.0,88,0.00,,,0.00,WUHU216HW,2013-09-17 03:36:00,
2013-09-16 22:41:00,50.0,46.6,29.71,NNE,23,0.0,0.0,88,0.00,,,0.00,WUHU216HW,2013-09-17 03:41:00,
2013-09-16 22:46:00,50.0,46.6,29.71,West,270,0.3,0.4,88,0.00,,,0.00,WUHU216HW,2013-09-17 03:46:00,
2013-09-16 22:51:00,50.2,47.1,29.71,ENE,68,0.0,0.4,89,0.00,,,0.00,WUHU216HW,2013-09-17 03:51:00,
2013-09-16 22:56:00,50.2,47.1,29.71,West,270,0.0,0.2,89,0.00,,,0.00,WUHU216HW,2013-09-17 03:56:00,
2013-09-16 23:01:00,50.2,47.1,29.71,SSW,203,0.2,0.2,89,0.00,,,0.00,WUHU216HW,2013-09-17 04:01:00,
2013-09-16 23:02:00,50.2,47.1,29.71,ENE,64,0.3,0.4,89,0.00,,,0.00,WUHU216HW,2013-09-17 04:02:00,
2013-09-16 23:07:00,51.5,48.9,29.72,North,0,4.3,4.3,91,0.00,,,0.00,WUHU216HW,2013-09-17 04:07:00,
2013-09-16 23:11:00,53.5,50.6,29.72,NE,44,2.8,4.3,90,0.00,,,0.00,WUHU216HW,2013-09-17 04:11:00,
2013-09-16 23:17:00,54.7,50.9,29.72,East,90,3.4,4.3,87,0.00,,,0.00,WUHU216HW,2013-09-17 04:17:00,
2013-09-16 23:22:00,55.4,50.7,29.72,East,90,2.5,4.5,84,0.00,,,0.00,WUHU216HW,2013-09-17 04:22:00,
2013-09-16 23:26:00,56.2,50.8,29.72,SE,135,3.4,4.5,82,0.00,,,0.00,WUHU216HW,2013-09-17 04:26:00,
2013-09-16 23:31:00,56.5,50.8,29.72,NE,45,5.4,5.4,81,0.00,,,0.00,WUHU216HW,2013-09-17 04:31:00,
2013-09-16 23:37:00,56.5,50.5,29.73,ENE,62,2.4,5.4,80,0.00,,,0.00,WUHU216HW,2013-09-17 04:37:00,
2013-09-16 23:42:00,56.7,50.7,29.72,East,90,4.7,5.4,80,0.00,,,0.00,WUHU216HW,2013-09-17 04:42:00,
2013-09-16 23:47:00,56.9,50.5,29.73,SSE,158,5.6,5.8,79,0.00,,,0.00,WUHU216HW,2013-09-17 04:47:00,
2013-09-16 23:52:00,56.9,50.2,29.72,East,90,5.8,5.8,78,0.00,,,0.00,WUHU216HW,2013-09-17 04:52:00,
2013-09-16 23:56:00,57.1,50.1,29.72,ENE,68,4.9,5.8,77,0.00,,,0.00,WUHU216HW,2013-09-17 04:56:00,